Temp
-7 -6 -7 -7 -8 -7 -8 -7 -7 -7 -7 -7 -6 -6 -6 -7 -7 -6 -6 -6 -6 -6 -6 -6 -6 -6 -6 -6 -6 -6 -7 -7 -7 -7 -7 -7 -8 -8 -7 -7 -7 -7 -7 -7 -7 -7 -7 -7 -7
-8 -6 -7 -8 -7 -7 -8 -7 -7 -7 -6 -6 -6 -6 -6 -6 -6 -6 -6 -6 -6 -6 -6 -6 -6 -7 -6 -6 -7 -7 -7 -7 -7 -8 -8 -8 -8 -8 -8 -8 -7 -7 -7 -7 -8 -8 -8 -8 -7
-8 -7 -7 -8 -8 -8 -7 -8 -7 -6 -6 -6 -6 -6 -6 -6 -6 -6 -6 -6 -6 -6 -6 -6 -6 -7 -6 -6 -7 -7 -7 -7 -7 -8 -8 -8 -8 -8 -8 -8 -8 -8 -8 -8 -8 -8 -8 -8 -7
-8 -8 -7 -8 -9 -8 -8 -8 -7 -7 -6 -6 -6 -6 -6 -6 -6 -6 -6 -7 -7 -7 -7 -6 -6 -6 -6 -7 -7 -7 -7 -7 -8 -8 -8 -8 -8 -8 -8 -8 -9 -9 -9 -9 -8 -8 -8 -8 -8
-9 -9 -9 -8 -9 -8 -8 -8 -8 -7 -6 -6 -5 -5 -5 -6 -6 -7 -7 -7 -8 -7 -7 -7 -7 -7 -6 -7 -7 -7 -7 -7 -8 -8 -8 -8 -8 -8 -8 -8 -8 -9 -9 -9 -9 -9 -8 -8 -8
-9 -9 -10 -9 -9 -8 -8 -8 -8 -7 -6 -6 -5 -5 -6 -6 -7 -7 -8 -8 -7 -7 -7 -7 -8 -7 -7 -7 -7 -7 -7 -7 -8 -8 -8 -8 -8 -8 -8 -8 -8 -9 -9 -9 -9 -9 -9 -9 -9
-9 -10 -10 -10 -8 -9 -9 -9 -8 -8 -7 -7 -6 -6 -7 -7 -7 -8 -8 -8 -8 -8 -8 -8 -8 -8 -8 -8 -8 -8 -8 -8 -8 -8 -8 -8 -8 -8 -8 -9 -9 -9 -9 -9 -9 -9 -9 -9 -9
-8 -9 -9 -10 -9 -10 -9 -9 -8 -8 -7 -7 -7 -7 -7 -7 -8 -8 -8 -8 -8 -8 -8 -8 -8 -8 -8 -8 -8 -8 -8 -8 -8 -8 -8 -8 -8 -8 -9 -9 -9 -9 -9 -9 -9 -9 -9 -10 -9
-8 -9 -10 -10 -10 -8 -9 -9 -9 -8 -8 -8 -7 -7 -8 -9 -9 -8 -8 -8 -8 -8 -8 -8 -8 -8 -8 -8 -8 -8 -8 -8 -8 -8 -8 -8 -8 -9 -9 -9 -9 -10 -10 -9 -9 -9 -9 -9 -9
-8 -9 -10 -10 -10 -9 -9 -9 -9 -9 -8 -8 -8 -8 -8 -9 -9 -8 -8 -8 -8 -8 -8 -8 -8 -8 -8 -8 -8 -8 -8 -8 -8 -8 -8 -8 -9 -9 -9 -9 -9 -10 -10 -9 -9 -9 -9 -9 -9
-7 -8 -11 -9 -9 -10 -10 -10 -10 -9 -9 -8 -8 -9 -9 -9 -9 -8 -8 -8 -8 -8 -8 -8 -8 -8 -8 -8 -8 -8 -8 -8 -8 -8 -9 -9 -9 -9 -9 -9 -9 -9 -9 -9 -10 -9 -9 -10 -9
-7 -8 -8 -9 -9 -10 -10 -9 -10 -9 -9 -9 -9 -9 -9 -9 -9 -9 -8 -8 -8 -8 -8 -8 -8 -8 -8 -8 -8 -8 -8 -8 -8 -8 -9 -9 -9 -9 -9 -9 -9 -9 -9 -10 -10 -10 -10 -10 -10
-7 -8 -9 -9 -9 -10 -10 -10 -10 -9 -9 -9 -9 -9 -9 -9 -9 -10 -10 -9 -8 -9 -8 -8 -8 -8 -8 -8 -8 -8 -8 -8 -8 -8 -8 -9 -9 -9 -9 -9 -9 -9 -9 -9 -10 -10 -10 -10 -10
-7 -8 -8 -9 -10 -10 -10 -10 -10 -10 -9 -9 -10 -9 -9 -9 -10 -10 -10 -9 -9 -9 -8 -9 -8 -9 -9 -9 -8 -8 -8 -8 -9 -9 -9 -9 -9 -9 -9 -9 -9 -9 -9 -9 -9 -10 -9 -9 -9
-7 -8 -8 -9 -10 -10 -10 -10 -10 -10 -10 -10 -10 -10 -10 -10 -10 -10 -10 -9 -9 -9 -9 -8 -8 -9 -9 -9 -9 -8 -8 -8 -9 -9 -9 -9 -9 -9 -9 -9 -9 -9 -9 -9 -9 -10 -10 -10 -9
-7 -8 -8 -9 -9 -10 -10 -9 -11 -10 -10 -10 -9 -9 -10 -9 -10 -10 -10 -10 -9 -9 -9 -9 -9 -9 -8 -8 -8 -8 -8 -8 -9 -9 -9 -9 -9 -9 -9 -9 -9 -9 -9 -9 -9 -9 -9 -10 -10
-8 -8 -9 -9 -9 -10 -9 -9 -9 -10 -10 -9 -9 -9 -9 -9 -10 -10 -10 -10 -10 -9 -9 -9 -9 -9 -9 -9 -8 -8 -8 -8 -8 -9 -9 -9 -9 -9 -9 -9 -9 -9 -9 -9 -9 -9 -9 -9 -10
-8 -8 -8 -9 -9 -10 -10 -9 -10 -9 -9 -9 -9 -9 -9 -9 -10 -10 -10 -10 -9 -9 -9 -9 -9 -9 -9 -9 -9 -9 -9 -8 -9 -9 -9 -9 -9 -9 -9 -9 -9 -10 -9 -9 -9 -9 -9 -9 -9
-8 -8 -8 -9 -9 -9 -10 -10 -10 -10 -9 -9 -9 -9 -9 -9 -10 -10 -10 -10 -10 -9 -9 -9 -9 -9 -9 -9 -9 -9 -9 -9 -9 -9 -9 -9 -9 -9 -10 -10 -10 -10 -10 -10 -10 -10 -10 -9 -10
-8 -8 -8 -8 -9 -9 -9 -9 -10 -10 -9 -9 -9 -9 -9 -9 -10 -10 -10 -10 -10 -9 -10 -9 -9 -9 -10 -10 -10 -10 -10 -9 -10 -10 -10 -10 -9 -10 -10 -10 -10 -10 -10 -10 -10 -10 -9 -9 -9
-8 -8 -9 -8 -9 -9 -9 -9 -9 -9 -10 -9 -8 -8 -9 -9 -9 -10 -10 -10 -10 -10 -10 -10 -10 -10 -11 -10 -10 -10 -10 -10 -10 -10 -11 -10 -10 -10 -10 -10 -10 -10 -10 -10 -10 -10 -10 -9 -9
-9 -9 -9 -9 -9 -9 -9 -8 -9 -8 -8 -8 -9 -9 -9 -9 -9 -9 -9 -10 -10 -10 -10 -10 -11 -11 -11 -11 -11 -11 -11 -10 -10 -10 -10 -10 -10 -10 -10 -10 -10 -9 -9 -10 -9 -10 -10 -10 -10
-10 -9 -9 -9 -9 -9 -9 -9 -8 -9 -9 -9 -9 -9 -9 -9 -9 -9 -10 -10 -10 -10 -10 -10 -11 -11 -11 -12 -11 -11 -11 -11 -11 -10 -10 -10 -10 -10 -10 -10 -9 -10 -10 -10 -10 -10 -10 -10 -10
-10 -10 -10 -10 -10 -10 -9 -9 -9 -10 -10 -9 -9 -10 -10 -10 -10 -10 -10 -11 -10 -10 -10 -10 -11 -11 -11 -12 -11 -11 -11 -11 -11 -11 -11 -11 -10 -10 -10 -10 -10 -10 -10 -10 -10 -10 -10 -10 -10
-10 -10 -10 -11 -11 -11 -11 -11 -12 -11 -10 -10 -10 -11 -12 -11 -11 -11 -10 -10 -10 -10 -10 -10 -10 -10 -11 -11 -11 -11 -10 -11 -11 -11 -11 -11 -11 -10 -10 -10 -10 -10 -11 -11 -11 -10 -10 -11 -10
-11 -11 -11 -11 -11 -11 -12 -11 -12 -11 -9 -10 -10 -10 -10 -10 -10 -11 -11 -11 -11 -11 -11 -11 -11 -11 -11 -11 -11 -11 -11 -11 -11 -11 -11 -11 -10 -10 -11 -10 -11 -11 -11 -11 -11 -11 -11 -11 -10
-12 -12 -11 -11 -11 -10 -10 -10 -11 -12 -10 -10 -10 -10 -10 -10 -10 -11 -11 -11 -11 -11 -11 -11 -11 -11 -11 -11 -11 -11 -11 -11 -11 -11 -11 -11 -11 -11 -11 -10 -11 -11 -11 -11 -11 -11 -11 -11 -11
-12 -12 -12 -12 -12 -11 -11 -12 -12 -13 -11 -10 -10 -10 -10 -10 -11 -11 -11 -11 -11 -11 -11 -11 -11 -11 -11 -11 -11 -11 -11 -11 -11 -11 -11 -11 -12 -11 -12 -11 -11 -11 -11 -11 -11 -11 -11 -11 -11
-12 -12 -11 -12 -12 -12 -11 -11 -13 -12 -12 -11 -10 -10 -10 -10 -11 -11 -11 -11 -11 -11 -11 -11 -11 -11 -11 -11 -11 -11 -11 -12 -12 -12 -11 -11 -11 -11 -11 -11 -11 -12 -11 -11 -11 -11 -11 -11 -11
-12 -12 -12 -13 -12 -11 -11 -11 -12 -12 -12 -12 -11 -10 -10 -11 -11 -11 -11 -11 -11 -11 -11 -11 -11 -11 -11 -11 -11 -11 -11 -12 -12 -12 -12 -12 -11 -11 -11 -12 -12 -12 -12 -11 -11 -11 -11 -11 -11
Height
5912 5913 5915 5916 5920 5920 5923 5921 5918 5918 5918 5918 5918 5917 5917 5917 5917 5920 5917 5917 5917 5917 5917 5916 5916 5916 5916 5915 5914 5913 5913 5912 5912 5911 5910 5909 5908 5908 5907 5905 5904 5902 5901 5900 5899 5897 5895 5894 5892
5910 5912 5915 5916 5920 5921 5922 5920 5919 5919 5918 5918 5918 5917 5916 5917 5917 5916 5916 5916 5916 5916 5915 5916 5916 5915 5916 5915 5915 5913 5913 5913 5912 5911 5911 5910 5909 5908 5907 5906 5904 5902 5900 5899 5898 5897 5894 5893 5891
5908 5911 5914 5916 5919 5922 5920 5919 5920 5920 5919 5918 5918 5917 5916 5915 5914 5915 5915 5915 5915 5915 5915 5915 5914 5914 5914 5914 5913 5911 5911 5911 5911 5911 5910 5910 5909 5908 5907 5906 5903 5901 5899 5898 5897 5896 5894 5892 5891
5906 5909 5913 5916 5920 5917 5916 5918 5919 5919 5919 5918 5917 5916 5915 5914 5913 5914 5914 5915 5915 5914 5914 5913 5913 5913 5913 5912 5912 5911 5910 5910 5910 5910 5910 5910 5909 5908 5907 5906 5903 5901 5899 5896 5895 5894 5893 5892 5890
5903 5906 5910 5914 5916 5915 5915 5916 5918 5919 5918 5917 5917 5916 5914 5913 5912 5912 5913 5913 5913 5912 5912 5912 5912 5912 5912 5911 5911 5910 5909 5910 5910 5910 5910 5909 5909 5907 5905 5904 5903 5901 5899 5896 5894 5893 5891 5891 5889
5902 5904 5908 5913 5915 5913 5914 5914 5916 5917 5916 5915 5915 5912 5912 5911 5911 5910 5910 5910 5910 5911 5910 5911 5911 5911 5911 5910 5910 5910 5909 5909 5909 5909 5909 5908 5907 5907 5905 5904 5903 5901 5899 5897 5895 5892 5890 5889 5888
5897 5901 5907 5907 5910 5912 5912 5912 5914 5916 5916 5915 5915 5913 5911 5909 5909 5909 5908 5908 5909 5909 5910 5910 5910 5910 5911 5910 5910 5909 5909 5909 5909 5909 5908 5907 5907 5906 5904 5903 5902 5901 5900 5898 5896 5893 5890 5888 5887
5894 5899 5900 5904 5909 5909 5910 5910 5913 5914 5915 5915 5913 5913 5910 5908 5907 5907 5906 5906 5907 5908 5908 5909 5909 5909 5909 5910 5910 5909 5908 5908 5908 5908 5908 5907 5906 5905 5903 5903 5902 5901 5900 5898 5896 5894 5892 5888 5886
5891 5897 5901 5901 5905 5905 5907 5908 5910 5913 5913 5913 5912 5910 5908 5907 5907 5907 5906 5906 5906 5907 5907 5907 5908 5908 5908 5909 5910 5909 5908 5908 5908 5907 5907 5906 5905 5903 5902 5901 5901 5899 5899 5897 5895 5893 5891 5889 5886
5889 5894 5900 5894 5898 5902 5904 5905 5908 5911 5912 5912 5912 5909 5907 5906 5906 5906 5906 5906 5906 5907 5906 5907 5907 5907 5908 5908 5909 5909 5908 5907 5907 5907 5906 5905 5903 5902 5900 5900 5899 5898 5896 5895 5893 5891 5889 5888 5887
5885 5889 5893 5891 5894 5899 5902 5904 5906 5908 5910 5910 5910 5907 5906 5905 5905 5905 5905 5906 5906 5906 5906 5906 5906 5907 5907 5908 5908 5908 5907 5906 5905 5905 5904 5903 5902 5901 5900 5898 5897 5895 5893 5893 5891 5889 5888 5887 5885
5882 5886 5883 5886 5891 5896 5899 5902 5903 5905 5907 5907 5908 5907 5906 5905 5904 5903 5904 5904 5905 5905 5905 5904 5905 5906 5906 5907 5907 5906 5905 5904 5904 5903 5902 5901 5900 5900 5899 5897 5895 5893 5893 5891 5890 5889 5887 5886 5884
5879 5882 5882 5885 5888 5892 5895 5898 5899 5902 5903 5905 5906 5905 5905 5904 5903 5902 5901 5902 5902 5903 5903 5903 5903 5904 5905 5906 5905 5905 5903 5902 5902 5901 5901 5900 5899 5898 5897 5896 5895 5893 5892 5890 5888 5887 5886 5885 5883
5877 5878 5879 5881 5886 5888 5891 5894 5897 5900 5900 5902 5903 5903 5904 5903 5903 5901 5900 5899 5899 5900 5901 5901 5901 5902 5903 5903 5903 5903 5902 5901 5900 5900 5900 5899 5898 5897 5896 5895 5894 5893 5891 5889 5887 5886 5884 5882 5880
5875 5876 5878 5880 5883 5885 5886 5888 5892 5895 5897 5898 5899 5900 5901 5902 5901 5900 5898 5897 5896 5897 5898 5899 5899 5899 5900 5900 5900 5900 5900 5899 5898 5898 5898 5897 5896 5896 5895 5894 5893 5891 5889 5887 5885 5883 5882 5879 5877
5871 5873 5874 5879 5879 5881 5882 5886 5890 5890 5891 5894 5896 5897 5898 5900 5899 5898 5897 5895 5895 5895 5895 5896 5896 5896 5897 5898 5898 5897 5897 5896 5896 5896 5895 5895 5895 5894 5893 5892 5891 5890 5888 5885 5883 5881 5879 5876 5874
5868 5869 5871 5876 5874 5877 5877 5880 5886 5883 5886 5887 5890 5893 5895 5896 5897 5897 5896 5893 5893 5892 5893 5892 5893 5893 5894 5895 5894 5893 5893 5893 5893 5893 5892 5892 5892 5891 5890 5889 5888 5887 5885 5883 5880 5877 5875 5874 5871
5864 5865 5866 5871 5870 5871 5872 5874 5878 5877 5880 5883 5885 5887 5890 5891 5894 5893 5892 5891 5890 5889 5889 5890 5890 5890 5890 5890 5890 5889 5889 5889 5889 5889 5888 5888 5888 5888 5886 5885 5884 5882 5881 5879 5876 5874 5872 5869 5867
5861 5862 5863 5864 5862 5865 5867 5866 5869 5871 5872 5876 5879 5881 5882 5885 5889 5889 5887 5887 5886 5886 5886 5887 5886 5886 5886 5886 5885 5885 5885 5884 5884 5884 5883 5883 5882 5882 5881 5880 5879 5877 5876 5874 5871 5869 5866 5863 5861
5855 5857 5859 5858 5856 5857 5861 5860 5863 5864 5865 5869 5872 5874 5876 5878 5881 5883 5883 5881 5881 5881 5881 5881 5881 5881 5881 5881 5881 5880 5880 5879 5879 5879 5878 5878 5877 5877 5875 5874 5872 5871 5869 5867 5866 5863 5859 5857 5854
5849 5851 5851 5851 5849 5853 5854 5853 5856 5859 5860 5861 5864 5866 5869 5871 5873 5875 5876 5875 5875 5874 5875 5875 5875 5875 5876 5876 5876 5876 5875 5874 5873 5872 5872 5872 5872 5871 5870 5868 5866 5865 5863 5861 5859 5856 5853 5851 5848
5844 5843 5845 5845 5845 5848 5843 5846 5850 5852 5851 5851 5857 5858 5860 5863 5865 5867 5868 5868 5869 5868 5868 5869 5869 5869 5870 5870 5870 5870 5869 5869 5868 5867 5867 5867 5865 5865 5864 5862 5860 5859 5857 5855 5852 5850 5848 5845 5843
5837 5836 5837 5838 5837 5838 5839 5838 5846 5846 5842 5847 5849 5852 5853 5855 5856 5858 5860 5862 5863 5862 5863 5863 5863 5863 5864 5864 5863 5863 5862 5861 5862 5862 5861 5860 5860 5859 5857 5856 5855 5853 5850 5848 5846 5843 5841 5838 5836
5827 5829 5829 5830 5829 5826 5832 5833 5836 5838 5837 5840 5844 5844 5846 5846 5847 5850 5852 5854 5856 5857 5857 5856 5856 5856 5856 5856 5855 5856 5855 5855 5855 5854 5853 5853 5852 5852 5851 5850 5848 5846 5844 5841 5838 5836 5834 5831 5828
5821 5821 5822 5823 5823 5822 5827 5825 5826 5827 5829 5832 5836 5838 5838 5835 5838 5841 5844 5846 5846 5848 5850 5850 5850 5849 5849 5849 5849 5849 5850 5849 5848 5846 5845 5845 5845 5844 5843 5842 5841 5840 5837 5833 5831 5829 5826 5824 5822
5814 5813 5814 5810 5814 5817 5820 5814 5818 5814 5818 5819 5814 5820 5822 5826 5827 5829 5832 5832 5835 5838 5839 5842 5844 5843 5843 5843 5843 5843 5842 5840 5838 5836 5836 5837 5837 5836 5834 5833 5832 5830 5827 5824 5821 5820 5819 5817 5814
5804 5806 5803 5802 5803 5801 5807 5808 5808 5804 5800 5806 5809 5810 5813 5815 5817 5820 5823 5824 5825 5828 5830 5832 5833 5833 5833 5833 5833 5833 5832 5829 5829 5828 5827 5827 5827 5826 5825 5824 5823 5820 5818 5816 5815 5812 5810 5808 5805
5797 5796 5797 5793 5791 5790 5795 5799 5804 5791 5791 5791 5795 5798 5798 5802 5804 5806 5809 5811 5812 5817 5818 5818 5820 5820 5821 5820 5821 5821 5822 5821 5819 5816 5816 5815 5815 5814 5813 5812 5810 5808 5806 5805 5805 5802 5801 5800 5798
5787 5782 5784 5784 5783 5778 5779 5786 5783 5783 5778 5778 5781 5785 5788 5788 5791 5792 5793 5796 5799 5800 5802 5803 5804 5806 5807 5807 5807 5808 5807 5807 5806 5805 5804 5803 5802 5801 5799 5797 5795 5795 5793 5792 5793 5793 5791 5789 5786
5774 5773 5770 5769 5770 5766 5764 5769 5772 5767 5762 5764 5767 5771 5774 5776 5776 5778 5780 5782 5785 5786 5788 5789 5789 5790 5793 5793 5795 5793 5794 5793 5793 5792 5791 5790 5789 5786 5782 5782 5780 5780 5781 5781 5783 5782 5779 5777 5775
Wind_Speed
12 13 12 17 17 15 8 10 12 11 10 11 11 12 9 8 6 5 5 3 1 2 2 2 2 3 4 5 5 4 3 2 3 4 5 7 8 10 12 14 16 17 17 18 18 17 15 13 13
15 14 14 12 15 11 10 12 8 10 8 9 10 9 9 7 4 3 3 1 1 2 3 4 3 4 6 6 7 6 5 4 4 5 7 8 9 11 13 14 15 16 17 16 16 15 13 12 11
18 17 16 16 12 5 7 14 10 8 9 9 8 8 8 9 8 7 4 2 2 2 3 5 5 6 8 9 9 8 7 6 6 6 7 9 11 13 14 15 16 16 16 17 17 16 15 14 12
20 19 17 16 12 13 15 13 11 11 7 11 10 11 13 9 10 7 7 4 1 5 6 7 7 8 10 11 11 10 9 8 7 7 8 10 12 12 14 15 16 17 17 17 17 16 14 14 14
22 20 18 17 14 15 11 13 10 9 8 6 8 7 10 9 3 6 9 6 4 6 6 7 9 12 12 12 11 10 9 8 7 7 8 9 11 13 13 14 14 14 15 16 17 15 15 14 12
25 22 15 13 15 15 13 13 12 10 6 3 10 12 1 4 6 7 4 1 2 2 5 8 10 12 13 12 10 9 8 7 6 6 7 8 8 9 11 11 11 11 12 13 14 15 13 12 10
30 25 16 19 17 15 17 14 12 11 11 12 9 10 2 7 4 4 3 1 1 4 8 10 10 11 11 10 10 9 8 6 5 5 5 7 7 9 10 10 10 10 10 11 12 12 13 14 13
30 28 26 24 18 21 15 14 15 14 12 9 10 11 8 4 5 5 3 1 4 5 5 6 9 10 12 12 9 5 3 3 4 4 6 8 9 9 9 9 9 9 10 11 10 11 12 14 16
24 29 18 19 23 23 21 21 22 17 14 11 10 14 7 7 6 5 2 3 4 5 5 6 7 8 7 6 4 4 3 3 5 6 9 10 11 10 10 10 9 9 10 11 10 11 13 15 17
23 32 18 28 29 23 18 18 20 16 14 9 13 10 8 4 5 4 1 4 5 6 6 7 5 4 4 4 3 3 4 5 8 10 12 12 12 12 10 10 11 11 11 11 11 12 14 16 18
23 30 25 31 31 24 19 21 21 19 13 11 13 10 7 6 3 2 1 3 5 8 8 7 6 5 4 3 3 4 7 8 10 11 12 12 12 11 10 11 11 11 10 11 11 13 15 15 16
19 31 33 36 32 26 24 21 22 20 17 13 10 13 6 7 7 8 6 5 6 8 9 9 7 6 6 7 6 7 8 9 9 7 7 8 9 9 8 11 11 13 13 15 15 15 15 15 15
18 30 38 35 33 29 26 25 25 22 19 16 13 13 10 7 6 9 12 10 10 9 12 10 8 8 9 10 10 8 6 6 6 6 6 6 7 8 9 12 13 17 17 17 16 17 17 19 21
18 30 33 39 35 32 27 29 27 23 23 19 16 19 14 12 10 10 16 14 13 10 14 11 11 9 11 13 11 8 7 6 6 7 7 7 7 7 9 12 15 15 20 17 19 18 20 22 22
18 25 32 34 35 34 33 29 28 26 24 22 21 22 19 14 11 17 19 18 16 13 14 15 11 12 13 13 13 11 10 9 9 8 8 7 8 10 11 12 15 18 20 20 21 22 21 22 23
19 20 28 37 37 35 33 28 24 31 29 28 25 23 21 17 16 18 19 21 19 19 18 18 16 17 15 16 16 15 14 12 11 11 12 11 11 13 13 15 17 18 19 19 21 21 20 22 22
21 19 28 35 41 39 37 31 30 33 32 30 26 22 21 20 19 22 21 24 23 22 22 22 21 21 19 18 17 18 18 17 15 14 14 15 14 14 15 17 17 18 17 18 22 24 25 23 25
23 24 25 36 47 46 43 41 39 39 34 34 33 31 25 25 22 24 29 27 27 26 25 25 24 23 20 18 18 19 19 20 19 18 17 17 17 16 16 17 19 19 20 21 24 27 29 29 29
23 24 26 30 40 45 51 51 48 46 42 38 35 34 33 29 28 31 33 31 30 29 28 27 25 23 20 18 19 21 20 19 20 20 19 19 19 19 17 18 20 21 23 25 27 29 31 31 31
26 25 26 31 35 39 45 54 54 54 50 43 41 38 36 38 36 36 36 35 33 33 30 28 27 23 19 20 21 22 19 19 18 18 19 20 21 20 19 20 22 23 24 26 25 26 24 26 26
28 27 30 32 37 35 38 43 47 54 58 56 46 44 41 41 42 44 43 41 38 37 34 29 27 25 21 21 20 18 18 21 19 18 18 18 20 22 21 23 25 28 29 27 24 26 28 30 27
30 33 33 34 36 36 42 42 41 43 45 45 47 49 45 46 49 44 34 32 34 42 38 32 29 27 25 24 22 22 23 25 25 25 25 23 22 22 25 26 26 28 31 31 29 30 31 30 31
33 35 36 38 39 41 42 45 38 41 46 40 40 43 46 43 39 33 25 29 32 42 44 37 34 32 31 29 29 27 28 28 28 28 30 30 30 28 28 29 27 31 30 34 34 34 29 33 33
33 34 37 38 39 45 41 41 42 38 35 39 36 38 38 37 34 32 28 36 36 36 44 44 39 38 37 35 35 33 34 34 32 31 34 35 35 34 32 30 33 31 35 33 34 33 32 30 29
33 34 35 33 29 34 25 30 28 35 37 38 33 32 27 37 35 35 35 40 44 43 39 44 44 44 43 43 42 39 38 42 41 37 39 40 39 40 40 41 38 36 38 35 35 31 33 31 30
32 35 35 41 33 30 24 34 26 34 36 35 43 42 44 43 39 39 36 46 45 43 42 43 43 41 40 38 40 39 40 42 42 40 43 45 46 44 44 41 39 36 34 36 33 32 29 27 26
37 34 40 42 42 46 41 40 37 36 46 42 38 39 40 44 46 49 48 46 48 46 46 48 46 47 45 46 42 41 42 45 40 45 47 47 49 48 49 48 47 40 40 40 38 34 30 29 31
32 36 36 40 43 46 42 34 25 39 45 46 41 41 43 41 43 46 49 52 56 53 52 50 47 49 49 50 48 49 44 45 49 50 48 46 46 46 49 55 57 51 48 42 39 37 35 38 38
38 44 41 43 44 49 50 45 43 48 52 54 49 44 42 45 43 45 47 47 47 49 51 54 55 50 49 51 52 51 48 48 47 47 42 49 51 53 57 56 60 56 41 37 38 35 31 31 35
46 47 49 50 51 54 56 54 53 56 58 57 55 50 47 46 48 45 45 48 47 48 48 48 51 51 45 44 43 42 43 45 47 48 48 49 55 58 60 58 59 42 32 34 36 35 34 37 39
Wind_Direction
197 181 152 138 135 118 153 156 147 145 139 139 141 138 126 119 118 111 136 143 193 200 209 204 193 268 268 281 289 292 297 316 342 358 354 347 339 331 331 330 331 333 338 341 346 350 349 345 344
204 202 174 149 137 161 175 167 151 171 160 154 154 152 138 137 111 121 117 61 274 248 244 248 251 272 280 278 281 281 290 305 316 325 326 327 324 323 326 328 331 336 338 341 344 347 347 349 345
209 204 193 166 158 184 156 196 166 157 173 183 187 181 179 182 187 187 184 123 350 297 277 269 275 278 275 272 270 273 279 283 292 304 308 314 318 323 329 333 334 335 337 340 340 340 339 338 341
209 216 209 179 195 201 198 202 214 226 203 180 186 201 205 219 199 220 204 172 285 313 313 304 301 282 272 264 263 261 263 268 280 297 310 318 323 329 332 330 332 334 334 334 335 338 340 338 335
213 219 210 203 201 201 215 232 222 223 217 207 217 211 210 210 141 143 187 210 291 288 290 291 293 284 275 262 253 256 262 275 288 301 317 326 326 325 326 329 336 339 339 340 337 340 345 346 345
208 216 222 208 221 214 214 225 222 230 233 299 354 341 307 150 126 114 111 164 359 338 327 305 283 280 274 265 259 260 263 269 285 299 309 325 335 347 353 1 358 353 349 350 347 349 354 357 2
205 211 221 214 208 206 210 222 233 235 254 290 334 345 244 159 137 146 147 154 303 286 293 280 270 269 266 259 257 263 273 280 282 295 328 349 354 2 359 358 1 359 352 354 346 351 353 348 351
204 213 229 230 216 208 204 232 239 254 271 297 342 357 211 154 124 100 92 217 231 251 259 263 251 257 260 262 264 262 257 293 316 326 330 339 347 349 350 350 356 352 342 339 342 335 334 334 334
212 208 221 228 227 222 220 242 248 252 264 303 321 340 183 109 77 69 121 209 202 213 224 235 247 244 248 241 238 277 293 301 315 317 320 329 330 334 338 339 338 334 333 328 331 316 311 317 320
207 206 221 232 230 229 228 237 242 254 265 276 331 316 201 129 48 75 101 215 219 206 200 193 200 204 213 220 257 285 298 305 309 314 315 316 321 323 329 327 327 322 321 316 314 308 307 311 314
213 209 221 233 234 232 227 228 232 246 254 271 355 340 229 234 316 327 4 219 220 207 208 214 211 204 210 230 255 282 297 305 310 310 314 315 318 318 323 326 323 314 312 315 325 323 323 325 325
226 209 224 228 235 231 230 233 239 246 249 278 316 358 292 265 292 313 294 256 238 231 221 210 214 243 239 245 262 286 305 314 307 321 326 328 325 324 327 321 318 316 325 321 318 321 325 326 326
227 216 220 229 234 236 233 234 239 247 262 279 289 306 324 283 297 314 298 275 249 243 225 225 223 242 268 285 288 284 296 304 305 308 316 330 330 328 318 316 320 315 326 331 323 320 319 327 324
229 223 224 227 231 239 240 236 243 247 256 268 274 278 296 296 295 312 307 278 269 245 217 229 235 244 266 280 277 272 278 280 292 306 314 317 317 317 319 321 318 315 324 323 329 329 322 321 321
238 230 230 232 231 236 244 246 244 251 255 257 261 270 284 301 326 323 316 288 275 262 239 241 247 251 254 262 268 268 275 272 283 298 301 297 311 322 320 323 320 321 324 325 323 326 322 328 327
237 238 233 226 236 239 247 242 244 249 254 254 258 265 273 281 290 317 312 288 262 261 250 249 256 256 255 259 264 264 268 270 278 293 303 299 310 323 323 324 327 332 320 329 324 323 324 322 321
233 235 233 225 237 239 247 252 238 249 252 259 260 259 265 277 291 302 311 277 260 252 251 254 257 263 267 263 258 261 264 265 272 278 288 294 303 311 316 321 325 322 327 318 318 317 316 315 314
230 231 236 225 236 235 247 252 246 254 257 257 260 264 269 277 285 290 297 293 257 251 253 255 256 261 264 259 258 259 260 266 269 272 279 288 296 303 307 311 315 314 315 314 312 313 312 312 311
237 236 240 238 239 236 239 250 253 256 259 260 262 267 271 272 279 279 289 293 269 248 249 254 256 257 252 251 255 258 259 263 267 271 273 279 288 294 298 302 304 307 308 308 310 309 306 305 304
246 242 241 243 245 246 243 244 250 256 261 265 266 266 269 275 277 279 282 283 277 253 249 255 257 255 246 245 252 259 262 261 263 268 272 275 281 284 288 294 298 303 306 305 304 313 318 315 311
250 250 247 246 250 252 252 252 254 258 258 261 268 271 274 279 282 284 277 277 274 254 248 250 250 251 252 248 250 257 252 255 256 258 262 270 275 279 287 288 297 300 301 304 295 302 310 313 314
258 254 255 256 257 257 256 257 254 260 263 267 266 270 274 277 280 276 271 264 267 259 248 245 246 243 248 251 255 258 258 260 258 257 261 262 269 277 279 280 288 297 300 298 302 297 301 304 308
258 261 260 260 261 261 258 265 261 261 264 265 268 268 270 273 272 268 262 259 258 257 251 245 243 242 245 248 250 255 262 264 264 268 266 264 263 266 272 275 282 296 298 301 301 296 292 299 299
260 260 260 262 263 263 265 267 264 265 272 265 263 265 268 268 264 258 252 246 253 256 254 250 244 243 247 250 253 254 260 264 267 269 272 272 269 266 270 278 283 292 301 300 300 294 288 291 296
266 267 266 265 264 272 274 265 262 261 267 270 264 255 252 256 255 259 258 243 247 253 259 250 252 252 252 256 260 263 264 266 263 270 276 275 276 275 274 279 284 292 293 294 291 294 289 290 293
269 268 267 263 263 267 258 267 276 270 268 256 254 250 252 254 249 243 237 231 238 242 252 261 254 250 257 261 263 264 269 274 282 267 275 277 277 279 280 283 286 288 292 298 288 284 282 285 292
263 262 270 272 269 269 271 270 275 276 265 265 260 260 255 251 249 246 244 241 239 238 243 254 257 256 260 263 269 264 267 271 272 282 282 282 279 281 283 286 282 282 283 290 283 281 278 278 283
267 267 261 268 272 270 272 271 268 267 269 269 262 256 258 253 250 249 249 249 250 250 252 253 256 260 264 268 268 267 269 268 273 277 277 279 280 289 283 281 284 279 274 278 278 274 275 279 282
274 274 271 269 268 270 271 268 258 262 265 269 266 263 258 259 254 252 251 250 251 249 249 252 253 256 258 258 263 265 265 267 270 272 276 278 285 286 286 287 283 276 273 269 264 267 272 280 288
272 270 270 270 271 271 272 268 273 271 267 268 270 267 263 258 258 254 251 251 253 254 255 254 258 259 257 259 259 260 264 262 268 272 279 283 287 291 284 273 277 264 260 258 263 273 277 280 284